Location: Brno
(49.2000°N, 16.6330°E)
Time: 02:38:55
(UTC+02:00)

Cosmos 2227 - Visible Passes

Search period start: 28 April 2017 00:00
Search period end: 08 May 2017 00:00
Orbit: 833 x 863 km, 71.0° (Epoch: 26 April)

Date Brightness Start Highest point End Pass type
(mag) Time Alt. Az. Time Alt. Az. Time Alt. Az.
28 Apr 6.9 21:21:01 10° WNW 21:23:34 13° W 21:26:06 10° WSW visible
29 Apr 6.9 21:07:50 10° WNW 21:10:27 13° W 21:13:03 10° WSW visible
30 Apr 6.9 20:54:38 10° WNW 20:57:19 14° W 21:00:01 10° SW visible
01 May 7.0 20:41:26 10° WNW 20:44:14 14° W 20:46:58 10° SW visible
